When you browse on this site, cookies collect data to enhance your experience and personalize the content and advertising you see.
Visit our Privacy Policy to learn more. By continuing to use the site, you agree to this use of cookies and data.
  • In Sweden
  • List of Countries
  • For 7 days
  • Water Temperature
  • Weather Map
  • Weather Widgets
  • user-avatar
    Login

    Hourly Weather Bandarawela

    Today, 6 June, Saturday

    Time Temperature Precipitation Wind Pressure Humidity
    00:00 +20°C° 0 mm 2 mps 667 mmHg 83%
    01:00 +20°C° 0 mm 2 mps 666 mmHg 82%
    02:00 +19°C° 0 mm 2 mps 665 mmHg 82%
    03:00 +19°C° 0 mm 2 mps 665 mmHg 82%
    04:00 +19°C° 0 mm 2 mps 666 mmHg 82%
    05:00 +19°C° 0 mm 2 mps 666 mmHg 83%
    06:00 +21°C° 0 mm 2 mps 667 mmHg 78%
    07:00 +22°C° 0 mm 3 mps 667 mmHg 74%
    08:00 +25°C° 0 mm 3 mps 668 mmHg 70%
    09:00 +26°C° 0.1 mm 3 mps 668 mmHg 67%
    10:00 +27°C° 0.1 mm 3 mps 669 mmHg 64%
    11:00 +28°C° 0 mm 4 mps 669 mmHg 61%
    12:00 +28°C° 1 mm 4 mps 668 mmHg 62%
    13:00 +28°C° 1 mm 4 mps 668 mmHg 63%
    14:00 +27°C° 1 mm 4 mps 667 mmHg 64%
    15:00 +26°C° 0.3 mm 4 mps 666 mmHg 69%
    16:00 +25°C° 0.3 mm 3 mps 666 mmHg 73%
    17:00 +24°C° 0 mm 3 mps 666 mmHg 78%
    18:00 +22°C° 0 mm 3 mps 667 mmHg 78%
    19:00 +21°C° 0 mm 3 mps 667 mmHg 79%
    20:00 +21°C° 0 mm 3 mps 667 mmHg 79%
    21:00 +21°C° 0 mm 3 mps 667 mmHg 80%
    22:00 +21°C° 0 mm 2 mps 667 mmHg 81%
    23:00 +21°C° 0 mm 2 mps 667 mmHg 82%

    Tomorrow, 7 June, Sunday

    Time Temperature Precipitation Wind Pressure Humidity
    00:00 +20°C° 0 mm 2 mps 667 mmHg 83%
    01:00 +20°C° 0 mm 2 mps 666 mmHg 83%
    02:00 +20°C° 0 mm 2 mps 665 mmHg 84%
    03:00 +20°C° 0 mm 2 mps 666 mmHg 84%
    04:00 +20°C° 0 mm 2 mps 666 mmHg 84%
    05:00 +20°C° 0 mm 2 mps 666 mmHg 84%
    06:00 +21°C° 0 mm 2 mps 666 mmHg 81%
    07:00 +23°C° 0 mm 2 mps 667 mmHg 78%
    08:00 +24°C° 0 mm 2 mps 668 mmHg 75%
    09:00 +24°C° 0.3 mm 2 mps 668 mmHg 73%
    10:00 +25°C° 0.3 mm 2 mps 668 mmHg 72%
    11:00 +25°C° 0.3 mm 2 mps 668 mmHg 70%
    12:00 +25°C° 0.1 mm 2 mps 668 mmHg 70%
    13:00 +25°C° 0.1 mm 2 mps 667 mmHg 70%
    14:00 +24°C° 0.1 mm 2 mps 666 mmHg 71%
    15:00 +24°C° 0.1 mm 2 mps 666 mmHg 73%
    16:00 +23°C° 0.1 mm 2 mps 666 mmHg 76%
    17:00 +23°C° 0.1 mm 2 mps 666 mmHg 79%
    18:00 +21°C° 0 mm 2 mps 666 mmHg 78%
    19:00 +21°C° 0 mm 2 mps 666 mmHg 77%
    20:00 +20°C° 0 mm 2 mps 666 mmHg 77%
    21:00 +20°C° 0 mm 2 mps 666 mmHg 78%
    22:00 +20°C° 0 mm 2 mps 667 mmHg 79%
    23:00 +20°C° 0 mm 2 mps 667 mmHg 80%

    Day after tomorrow, 8 June, Monday

    Time Temperature Precipitation Wind Pressure Humidity
    00:00 +20°C° 0 mm 2 mps 666 mmHg 80%
    01:00 +20°C° 0 mm 2 mps 666 mmHg 79%
    02:00 +20°C° 0 mm 2 mps 665 mmHg 79%
    03:00 +20°C° 0 mm 2 mps 665 mmHg 79%
    04:00 +21°C° 0 mm 1 mps 665 mmHg 79%
    05:00 +21°C° 0 mm 1 mps 665 mmHg 79%
    06:00 +22°C° 0 mm 1 mps 666 mmHg 76%
    07:00 +23°C° 0 mm 2 mps 667 mmHg 73%
    08:00 +24°C° 0 mm 2 mps 667 mmHg 70%
    09:00 +26°C° 0 mm 2 mps 667 mmHg 64%
    10:00 +27°C° 0 mm 2 mps 667 mmHg 59%
    11:00 +28°C° 0 mm 2 mps 668 mmHg 53%
    12:00 +28°C° 0 mm 3 mps 667 mmHg 55%
    13:00 +28°C° 0 mm 3 mps 667 mmHg 56%
    14:00 +28°C° 0 mm 3 mps 666 mmHg 57%
    15:00 +27°C° 0 mm 3 mps 666 mmHg 62%
    16:00 +27°C° 0 mm 2 mps 666 mmHg 68%
    17:00 +26°C° 0 mm 2 mps 665 mmHg 74%
    18:00 +25°C° 0 mm 2 mps 666 mmHg 75%
    19:00 +24°C° 0 mm 2 mps 666 mmHg 77%
    20:00 +23°C° 0 mm 2 mps 667 mmHg 78%
    21:00 +21°C° 0 mm 2 mps 667 mmHg 78%
    22:00 +21°C° 0 mm 2 mps 667 mmHg 78%
    23:00 +21°C° 0 mm 2 mps 667 mmHg 78%

    9 June, Tuesday

    Time Temperature Precipitation Wind Pressure Humidity
    00:00 +21°C° 0 mm 2 mps 666 mmHg 79%
    01:00 +20°C° 0 mm 2 mps 665 mmHg 80%
    02:00 +20°C° 0 mm 2 mps 665 mmHg 82%
    03:00 +20°C° 0 mm 2 mps 665 mmHg 83%
    04:00 +20°C° 0 mm 2 mps 665 mmHg 84%
    05:00 +20°C° 0 mm 2 mps 665 mmHg 85%
    06:00 +21°C° 0 mm 2 mps 665 mmHg 80%
    07:00 +24°C° 0 mm 2 mps 666 mmHg 75%
    08:00 +25°C° 0 mm 2 mps 667 mmHg 70%
    09:00 +26°C° 0 mm 3 mps 667 mmHg 66%
    10:00 +27°C° 0 mm 3 mps 667 mmHg 62%
    11:00 +28°C° 0 mm 4 mps 668 mmHg 58%
    12:00 +28°C° 0.4 mm 4 mps 667 mmHg 59%
    13:00 +28°C° 0.4 mm 4 mps 666 mmHg 60%
    14:00 +28°C° 0.4 mm 4 mps 666 mmHg 61%
    15:00 +27°C° 0.1 mm 3 mps 666 mmHg 66%
    16:00 +26°C° 0.1 mm 3 mps 665 mmHg 71%
    17:00 +25°C° 0.1 mm 2 mps 665 mmHg 76%
    18:00 +24°C° 0.2 mm 2 mps 665 mmHg 77%
    19:00 +23°C° 0.2 mm 2 mps 666 mmHg 79%
    20:00 +21°C° 0.2 mm 2 mps 666 mmHg 80%
    21:00 +21°C° 0 mm 2 mps 666 mmHg 80%
    22:00 +21°C° 0 mm 2 mps 666 mmHg 80%
    23:00 +20°C° 0 mm 2 mps 665 mmHg 80%

    10 June, Wednesday

    Time Temperature Precipitation Wind Pressure Humidity
    00:00 +20°C° 0 mm 2 mps 665 mmHg 81%
    01:00 +20°C° 0 mm 2 mps 664 mmHg 81%
    02:00 +20°C° 0 mm 2 mps 664 mmHg 81%
    03:00 +20°C° 0 mm 2 mps 664 mmHg 82%
    04:00 +20°C° 0 mm 2 mps 664 mmHg 82%
    05:00 +20°C° 0 mm 2 mps 664 mmHg 82%
    06:00 +21°C° 0 mm 3 mps 665 mmHg 77%
    07:00 +24°C° 0 mm 3 mps 666 mmHg 73%
    08:00 +25°C° 0 mm 3 mps 667 mmHg 69%
    09:00 +26°C° 0 mm 3 mps 667 mmHg 65%
    10:00 +28°C° 0 mm 4 mps 667 mmHg 61%
    11:00 +29°C° 0 mm 4 mps 667 mmHg 57%
    12:00 +29°C° 0.3 mm 4 mps 667 mmHg 57%
    13:00 +29°C° 0.3 mm 4 mps 666 mmHg 57%
    14:00 +29°C° 0.3 mm 5 mps 666 mmHg 58%
    15:00 +27°C° 0.2 mm 4 mps 665 mmHg 63%
    16:00 +26°C° 0.2 mm 4 mps 665 mmHg 69%
    17:00 +25°C° 0.2 mm 3 mps 665 mmHg 74%
    18:00 +24°C° 0.1 mm 3 mps 665 mmHg 77%
    19:00 +22°C° 0.1 mm 3 mps 665 mmHg 80%
    20:00 +21°C° 0.1 mm 2 mps 666 mmHg 82%
    21:00 +21°C° 0 mm 3 mps 665 mmHg 83%
    22:00 +21°C° 0 mm 3 mps 665 mmHg 83%
    23:00 +21°C° 0 mm 3 mps 665 mmHg 83%

    11 June, Thursday

    Time Temperature Precipitation Wind Pressure Humidity
    00:00 +20°C° 0 mm 3 mps 665 mmHg 84%
    01:00 +20°C° 0 mm 3 mps 664 mmHg 85%
    02:00 +20°C° 0 mm 3 mps 664 mmHg 85%
    03:00 +20°C° 0 mm 3 mps 664 mmHg 85%
    04:00 +20°C° 0 mm 3 mps 664 mmHg 85%
    05:00 +20°C° 0 mm 3 mps 664 mmHg 86%
    06:00 +21°C° 0 mm 3 mps 665 mmHg 81%
    07:00 +22°C° 0 mm 3 mps 665 mmHg 77%
    08:00 +25°C° 0 mm 3 mps 666 mmHg 73%
    09:00 +26°C° 0.2 mm 4 mps 666 mmHg 70%
    10:00 +27°C° 0.2 mm 4 mps 666 mmHg 66%
    11:00 +28°C° 0.2 mm 5 mps 667 mmHg 63%
    12:00 +27°C° 1.4 mm 5 mps 666 mmHg 65%
    13:00 +27°C° 1.4 mm 4 mps 665 mmHg 67%
    14:00 +26°C° 1.4 mm 4 mps 665 mmHg 69%
    15:00 +26°C° 0.7 mm 4 mps 665 mmHg 72%
    16:00 +25°C° 0.7 mm 3 mps 664 mmHg 76%
    17:00 +24°C° 0.7 mm 3 mps 664 mmHg 79%
    18:00 +22°C° 0.1 mm 3 mps 665 mmHg 81%
    19:00 +21°C° 0.1 mm 3 mps 665 mmHg 83%
    20:00 +21°C° 0.1 mm 3 mps 665 mmHg 85%
    21:00 +20°C° 0 mm 3 mps 665 mmHg 85%
    22:00 +20°C° 0 mm 3 mps 665 mmHg 86%
    23:00 +20°C° 0 mm 3 mps 665 mmHg 86%
    Show more